IRNSS-1F

Last updated on Fri Jul 11 2025 00:02:44 GMT+0000 (Coordinated Universal Time)

1 41384U 16015A 25191.49673491 .00000167 00000+0 00000+0 0 9996 2 41384 4.4970 105.4316 0017891 179.5130 215.0422 1.00275449 34249
UTC large
Height (km)
Speed (km/s)
/
Latitude / Longitude
Inclination (degrees)
Orbital Period (minutes)
Azimuth
Elevation
Range (km)
Doppler Factor

Next 0 passes for location: London (51.5072 / 0.1276)

Sorry there are no passes over London.